"Pseudo-MPEC" for C1CNVD5

Created 2026 Mar 22 8:35:08 UT using Find_Orb

Click here for an explanation of pseudo-MPECs

 
 Astrometry: 
     C1CNVD5*1C2026 02 26.43230311 36 01.181+22 45 37.19   ~2QBK 22.65GVNEOCPV00
     C1CNVD5 1C2026 02 26.43790311 36 01.084+22 45 31.57   ~2QBK 22.38GVNEOCPV00
     C1CNVD5 1C2026 02 26.44348311 36 01.004+22 45 25.74   ~2QBK 22.28GVNEOCPV00
     C1CNVD5 1C2026 02 26.44907411 36 00.936+22 45 20.05   ~2QBK 22.30GVNEOCPV00
     C1CNVD5 1C2026 02 27.34296711 35 57.980+22 30 10.80   ~2R95 22.86GVNEOCPV00
     C1CNVD5 1C2026 02 27.34831111 35 57.858+22 30 05.15   ~2R95 22.72GVNEOCPV00
     C1CNVD5 1C2026 02 27.35362511 35 57.793+22 29 59.71   ~2R95 22.40GVNEOCPV00
     C1CNVD5 1C2026 02 27.35894811 35 57.721+22 29 54.10   ~2R95       VNEOCPV00

Station data:
(V00) Kitt Peak-Bok  (N31.963125 W111.600190)  US/Arizona. Measurers T.
   Beuden, V. F. Carvajal, D. Fay, J. B. Fazekas, D. C. Fuls, A. R. Gibbs, A.
   D. Grauer, H. Gröller, J. K. Hogan, R. A. Kowalski, S. M. Larson, G. J.
   Leonard, D. Rankin, R. L. Seaman, F. C. Shelly, K. W. Wierzchoś. 2.25-m
   reflector + 4x4K mosaic CCD.

Orbital elements:  C1CNVD5
   Perihelion 2026 Jan 10.973295 +/- 40.7 TT = 23:21:32.7 (JD 2461051.473295)
Epoch 2026 Feb 27.0 TT = JDT 2461098.5   Earth MOID: 0.1649   Ju: 0.2090
M   6.202485615 +/- 9               Ma: 0.0233                   AutoNEOCP
n   0.131892839 +/- 0.124           Peri.   52.326318 +/- 80
a   3.822274778 +/- 2.39            Node    61.734919 +/- 31
e   0.70298842 +/- 0.186            Incl.    4.493878 +/- 3.6
P   7.47279                H 23.88  G  0.15   U 11.3  SR
q 1.135259856 +/- 0.169    Q 6.509289701 +/- 4.82         (J2000 ecliptic)
From 8 observations 2026 Feb. 26-27 (22.2 hr); mean residual 0".18
Residuals in arcseconds: 
260226 V00  .27+  .25-    260226 V00  .08-  .22+    260227 V00  .04-  .04-    
260226 V00  .05-  .00     260227 V00  .22+  .27+    260227 V00  .13+  .25-    
260226 V00  .14-  .03+    260227 V00  .30-  .02+    

Ephemerides (geocentric):
Date (UTC) HH   RA             Dec           delta  r     elong  mag " sig PA
---- --------  ------------   ------------  ------ ------ -----  --- --------
2026 03 22 09  11 31 58.801   +16 34 01.95  .48248 1.4611 161.0 23.9  28d 121
2026 03 22 10  11 31 58.586   +16 33 26.26  .48285 1.4615 161.0 23.9  28d 121
2026 03 22 11  11 31 58.372   +16 32 50.58  .48321 1.4618 161.0 23.9  28d 121
2026 03 22 12  11 31 58.161   +16 32 14.91  .48357 1.4621 161.0 23.9  28d 121
2026 03 22 13  11 31 57.951   +16 31 39.24  .48393 1.4624 160.9 23.9  28d 121
2026 03 22 14  11 31 57.743   +16 31 03.59  .48429 1.4627 160.9 23.9  28d 121
2026 03 22 15  11 31 57.537   +16 30 27.94  .48466 1.4631 160.9 23.9  28d 121
2026 03 22 16  11 31 57.334   +16 29 52.30  .48502 1.4634 160.9 23.9  28d 121
2026 03 22 17  11 31 57.132   +16 29 16.67  .48538 1.4637 160.9 23.9  28d 121
2026 03 22 18  11 31 56.932   +16 28 41.05  .48575 1.4640 160.8 23.9  28d 121
2026 03 22 19  11 31 56.734   +16 28 05.44  .48611 1.4644 160.8 23.9  28d 121
2026 03 22 20  11 31 56.538   +16 27 29.84  .48647 1.4647 160.8 23.9  28d 121
2026 03 22 21  11 31 56.344   +16 26 54.24  .48684 1.4650 160.8 23.9  28d 121
2026 03 22 22  11 31 56.152   +16 26 18.66  .48720 1.4653 160.7 23.9  29d 121
2026 03 22 23  11 31 55.962   +16 25 43.08  .48757 1.4656 160.7 23.9  29d 121
2026 03 23 00  11 31 55.774   +16 25 07.51  .48793 1.4660 160.7 23.9  29d 121
2026 03 23 01  11 31 55.587   +16 24 31.95  .48830 1.4663 160.7 23.9  29d 121
2026 03 23 02  11 31 55.403   +16 23 56.40  .48867 1.4666 160.6 23.9  29d 121
2026 03 23 03  11 31 55.221   +16 23 20.86  .48903 1.4669 160.6 23.9  29d 121
2026 03 23 04  11 31 55.041   +16 22 45.32  .48940 1.4673 160.6 23.9  29d 121
2026 03 23 05  11 31 54.863   +16 22 09.80  .48976 1.4676 160.6 23.9  29d 121
2026 03 23 06  11 31 54.686   +16 21 34.28  .49013 1.4679 160.6 23.9  29d 121
2026 03 23 07  11 31 54.512   +16 20 58.77  .49050 1.4682 160.5 23.9  29d 122
2026 03 23 08  11 31 54.340   +16 20 23.28  .49087 1.4686 160.5 23.9  29d 122
2026 03 23 09  11 31 54.170   +16 19 47.79  .49123 1.4689 160.5 23.9  29d 122
2026 03 23 10  11 31 54.002   +16 19 12.30  .49160 1.4692 160.5 23.9  29d 122
2026 03 23 11  11 31 53.835   +16 18 36.83  .49197 1.4695 160.4 23.9  29d 122
2026 03 23 12  11 31 53.671   +16 18 01.37  .49234 1.4699 160.4 23.9  29d 122
2026 03 23 13  11 31 53.509   +16 17 25.91  .49271 1.4702 160.4 23.9  29d 122
2026 03 23 14  11 31 53.349   +16 16 50.46  .49308 1.4705 160.4 23.9  29d 122
2026 03 23 15  11 31 53.191   +16 16 15.02  .49345 1.4708 160.3 24.0  29d 122
2026 03 23 16  11 31 53.034   +16 15 39.59  .49382 1.4711 160.3 24.0  29d 122
2026 03 23 17  11 31 52.880   +16 15 04.17  .49419 1.4715 160.3 24.0  29d 122
2026 03 23 18  11 31 52.728   +16 14 28.76  .49456 1.4718 160.3 24.0  30d 122
2026 03 23 19  11 31 52.578   +16 13 53.36  .49493 1.4721 160.2 24.0  30d 122
2026 03 23 20  11 31 52.430   +16 13 17.96  .49530 1.4724 160.2 24.0  30d 122
2026 03 23 21  11 31 52.284   +16 12 42.57  .49567 1.4728 160.2 24.0  30d 122
2026 03 23 22  11 31 52.140   +16 12 07.19  .49604 1.4731 160.2 24.0  30d 122
2026 03 23 23  11 31 51.998   +16 11 31.83  .49641 1.4734 160.1 24.0  30d 122
2026 03 24 00  11 31 51.858   +16 10 56.46  .49678 1.4737 160.1 24.0  30d 122
2026 03 24 01  11 31 51.721   +16 10 21.11  .49715 1.4741 160.1 24.0  30d 122
2026 03 24 02  11 31 51.585   +16 09 45.77  .49753 1.4744 160.1 24.0  30d 122
2026 03 24 03  11 31 51.451   +16 09 10.43  .49790 1.4747 160.0 24.0  30d 122
2026 03 24 04  11 31 51.319   +16 08 35.11  .49827 1.4750 160.0 24.0  31d 122
2026 03 24 05  11 31 51.190   +16 07 59.79  .49865 1.4754 160.0 24.0  31d 122
2026 03 24 06  11 31 51.062   +16 07 24.48  .49902 1.4757 160.0 24.0  31d 122
2026 03 24 07  11 31 50.937   +16 06 49.18  .49939 1.4760 159.9 24.0  31d 122
2026 03 24 08  11 31 50.813   +16 06 13.89  .49977 1.4763 159.9 24.0  31d 122